Вернуться в каталог

THORAD AGENA D DEB

АктивенLEO
NORAD 44564·DEBRIS·🇺🇸 United States

Запущен Apr 8, 1970 с Vandenberg Space Force Base

Loading…

Ближайшие Пролёты (ближайшие 24 часа)

TLE

СвежийSource: Space-Track

Эпоха: Sep 14, 2026, 11:31 UTC

1 44564U 70025TM  26257.48015876  .00002486  00000-0  11409-2 0  9995
2 44564 100.0006 263.8734 0068161 273.0856 242.9348 14.21168671657960

Отслеживайте THORAD AGENA D DEB в реальном времени с AllMySat

Download on the App Store